Weather History for KMKS - November, 2013

Change the Weather History Date:

Thursday, November 21, 2013

  Actual Average (KCHS) Record (KCHS)
Temperature  
Mean Temperature 60 °F 57 °F  
Max Temperature 69 °F 68 °F 83 °F (1973)
Min Temperature 51 °F 46 °F 24 °F (1951)
Degree Days  
Heating Degree Days 5 9  
Month to date heating degree days 135  
Since 1 July heating degree days 204  
Cooling Degree Days 0 1  
Month to date cooling degree days 26  
Year to date cooling degree days 2290  
Growing Degree Days 10 (Base 50)    
Moisture  
Dew Point 54 °F    
Average Humidity 85    
Maximum Humidity 100    
Minimum Humidity 68    
Precipitation  
Precipitation 0.00 in 0.08 in 2.59 in (2005)
Month to date precipitation 1.71  
Year to date precipitation 47.20  
Sea Level Pressure  
Sea Level Pressure 30.35 in    
Wind  
Wind Speed 6 mph (NNE)    
Max Wind Speed 9 mph    
Max Gust Speed -    
Visibility 8 miles    
Events      
T = Trace of Precipitation, MM = Missing Value Source: NWS Daily Summary

Daily Weather History Graph

Daily Weather History Graph

Search for Another Location

Airport or City:

Trip Planner

Search our weather history database for the weather conditions in past years. The results will help you decide how hot, cold, wet, or windy it might be!

Date:

Astronomy

Nov. 21, 2013 Rise Set
Actual Time 6:56 AM EST 5:15 PM EST
Civil Twilight 6:30 AM EST 5:41 PM EST
Nautical Twilight 5:59 AM EST 6:11 PM EST
Astronomical Twilight 5:30 AM EST 6:41 PM EST
Moon 8:48 PM EST (11/21) 10:03 AM EST (11/21)
Length of Visible Light 11h 11m
Length of Day
10h 18m
Waning Gibbous, 85% of the Moon is Illuminated
Nov 21
Waning Gibbous
Nov 25
Last Quarter
Dec 2
New
Dec 9
First Quarter
Dec 17
Full

Hourly Weather History & Observations

Time (EST) Temp. Dew Point Humidity Pressure Visibility Wind Dir Wind Speed Gust Speed Precip Events Conditions
12:15 AM 53.6 °F 46.4 °F 77% 30.34 in 10.0 mi NNE 8.1 mph - N/A   Overcast
12:35 AM 53.6 °F 48.2 °F 82% 30.33 in 10.0 mi NE 8.1 mph - N/A   Overcast
12:55 AM 53.6 °F 48.2 °F 82% 30.33 in 10.0 mi NE 5.8 mph - N/A   Overcast
1:15 AM 53.6 °F 48.2 °F 82% 30.33 in 10.0 mi NNE 6.9 mph - N/A   Overcast
1:35 AM 53.6 °F 48.2 °F 82% 30.33 in 10.0 mi NNE 5.8 mph - N/A   Overcast
1:55 AM 53.6 °F 48.2 °F 82% 30.34 in 10.0 mi NNE 5.8 mph - N/A   Overcast
2:15 AM 53.6 °F 48.2 °F 82% 30.34 in 10.0 mi NNE 6.9 mph - N/A   Overcast
2:35 AM 53.6 °F 48.2 °F 82% 30.34 in 10.0 mi NNE 8.1 mph - N/A   Overcast
2:55 AM 53.6 °F 48.2 °F 82% 30.34 in 10.0 mi NNE 8.1 mph - N/A   Overcast
3:15 AM 53.6 °F 48.2 °F 82% 30.34 in 10.0 mi NNE 6.9 mph - N/A   Overcast
3:35 AM 53.6 °F 48.2 °F 82% 30.34 in 10.0 mi NNE 4.6 mph - N/A   Overcast
3:55 AM 53.6 °F 48.2 °F 82% 30.34 in 10.0 mi NNE 6.9 mph - N/A   Overcast
4:15 AM 53.6 °F 48.2 °F 82% 30.35 in 10.0 mi NNE 5.8 mph - N/A   Overcast
4:35 AM 51.8 °F 48.2 °F 88% 30.35 in 10.0 mi North 6.9 mph - N/A   Overcast
4:55 AM 51.8 °F 48.2 °F 88% 30.36 in 7.0 mi NNE 5.8 mph - N/A   Overcast
5:15 AM 51.8 °F 48.2 °F 88% 30.36 in 10.0 mi NNE 8.1 mph - N/A   Overcast
5:35 AM 51.8 °F 48.2 °F 88% 30.36 in 10.0 mi NNE 8.1 mph - N/A   Overcast
5:55 AM 51.8 °F 48.2 °F 88% 30.36 in 7.0 mi NNE 5.8 mph - N/A   Overcast
6:15 AM 51.8 °F 48.2 °F 88% 30.36 in 10.0 mi NNE 6.9 mph - N/A   Overcast
6:35 AM 51.8 °F 48.2 °F 88% 30.37 in 7.0 mi NNE 8.1 mph - N/A   Overcast
6:55 AM 51.8 °F 48.2 °F 88% 30.37 in 10.0 mi NNE 8.1 mph - N/A   Overcast
7:15 AM 51.8 °F 48.2 °F 88% 30.37 in 7.0 mi NNE 6.9 mph - N/A   Overcast
7:35 AM 51.8 °F 48.2 °F 88% 30.37 in 10.0 mi NNE 6.9 mph - N/A   Overcast
7:55 AM 51.8 °F 48.2 °F 88% 30.39 in 10.0 mi NNE 6.9 mph - N/A   Overcast
8:15 AM 53.6 °F 48.2 °F 82% 30.39 in 7.0 mi NNE 8.1 mph - N/A   Overcast
8:35 AM 53.6 °F 48.2 °F 82% 30.40 in 7.0 mi North 5.8 mph - N/A   Overcast
8:55 AM 53.6 °F 48.2 °F 82% 30.40 in 5.0 mi North 4.6 mph - N/A   Overcast
9:15 AM 53.6 °F 48.2 °F 82% 30.39 in 5.0 mi NNE 6.9 mph - N/A   Haze
9:35 AM 53.6 °F 48.2 °F 82% 30.40 in 7.0 mi NNE 9.2 mph - N/A   Overcast
9:55 AM 55.4 °F 50.0 °F 82% 30.40 in 7.0 mi North 6.9 mph - N/A   Overcast
10:15 AM 57.2 °F 50.0 °F 77% 30.40 in 7.0 mi North 5.8 mph - N/A   Overcast
10:35 AM 57.2 °F 50.0 °F 77% 30.40 in 7.0 mi NNE 6.9 mph - N/A   Overcast
10:55 AM 57.2 °F 51.8 °F 82% 30.40 in 7.0 mi NNE 6.9 mph - N/A   Overcast
11:15 AM 59.0 °F 51.8 °F 77% 30.39 in 10.0 mi North 5.8 mph - N/A   Overcast
11:35 AM 59.0 °F 51.8 °F 77% 30.38 in 7.0 mi North 8.1 mph - N/A   Overcast
11:55 AM 60.8 °F 53.6 °F 77% 30.38 in 10.0 mi North 8.1 mph - N/A   Overcast
12:15 PM 62.6 °F 53.6 °F 72% 30.37 in 10.0 mi North 5.8 mph - N/A   Scattered Clouds
12:35 PM 60.8 °F 53.6 °F 77% 30.36 in 7.0 mi North 5.8 mph - N/A   Mostly Cloudy
12:55 PM 60.8 °F 53.6 °F 77% 30.36 in 7.0 mi Calm Calm - N/A   Mostly Cloudy
1:15 PM 62.6 °F 53.6 °F 72% 30.35 in 10.0 mi North 5.8 mph - N/A   Overcast
1:35 PM 62.6 °F 55.4 °F 77% 30.35 in 7.0 mi NNW 4.6 mph - N/A   Overcast
1:55 PM 64.4 °F 55.4 °F 73% 30.34 in 7.0 mi NNW 5.8 mph - N/A   Mostly Cloudy
2:15 PM 68.0 °F 57.2 °F 68% 30.34 in 10.0 mi North 4.6 mph - N/A   Overcast
2:35 PM 68.0 °F 57.2 °F 68% 30.32 in 7.0 mi North 5.8 mph - N/A   Mostly Cloudy
2:55 PM 66.2 °F 57.2 °F 73% 30.32 in 7.0 mi North 5.8 mph - N/A   Mostly Cloudy
3:15 PM 68.0 °F 57.2 °F 68% 30.31 in 10.0 mi North 4.6 mph - N/A   Scattered Clouds
3:35 PM 69.8 °F 59.0 °F 68% 30.32 in 10.0 mi NE 3.5 mph - N/A   Scattered Clouds
3:55 PM 69.8 °F 60.8 °F 73% 30.33 in 10.0 mi East 8.1 mph - N/A   Scattered Clouds
4:15 PM 68.0 °F 60.8 °F 78% 30.32 in 7.0 mi ENE 4.6 mph - N/A   Scattered Clouds
4:35 PM 69.8 °F 60.8 °F 73% 30.33 in 10.0 mi ENE 3.5 mph - N/A   Mostly Cloudy
4:55 PM 68.0 °F 60.8 °F 78% 30.33 in 7.0 mi ENE 3.5 mph - N/A   Overcast
5:15 PM 68.0 °F 60.8 °F 78% 30.33 in 7.0 mi East 4.6 mph - N/A   Overcast
5:35 PM 66.2 °F 60.8 °F 83% 30.33 in 10.0 mi Calm Calm - N/A   Overcast
5:55 PM 64.4 °F 60.8 °F 88% 30.34 in 10.0 mi Calm Calm - N/A   Overcast
6:15 PM 64.4 °F 60.8 °F 88% 30.34 in 10.0 mi Calm Calm - N/A   Mostly Cloudy
6:35 PM 64.4 °F 60.8 °F 88% 30.34 in 10.0 mi Calm Calm - N/A   Scattered Clouds
6:55 PM 60.8 °F 59.0 °F 94% 30.34 in 7.0 mi Calm Calm - N/A   Scattered Clouds
7:15 PM 60.8 °F 59.0 °F 94% 30.35 in 10.0 mi Calm Calm - N/A   Mostly Cloudy
7:35 PM 59.0 °F 59.0 °F 100% 30.35 in 7.0 mi Calm Calm - N/A   Scattered Clouds
7:55 PM 59.0 °F 59.0 °F 100% 30.35 in 7.0 mi Calm Calm - N/A   Clear
8:15 PM 60.8 °F 60.8 °F 100% 30.35 in 7.0 mi Calm Calm - N/A   Clear
8:35 PM 60.8 °F 60.8 °F 100% 30.35 in 7.0 mi Calm Calm - N/A   Scattered Clouds
8:55 PM 60.8 °F 60.8 °F 100% 30.35 in 10.0 mi Calm Calm - N/A   Overcast
9:15 PM 60.8 °F 60.8 °F 100% 30.35 in 10.0 mi Calm Calm - N/A   Overcast
9:35 PM 60.8 °F 60.8 °F 100% 30.35 in 7.0 mi NE 3.5 mph - N/A   Overcast
9:55 PM 60.8 °F 60.8 °F 100% 30.35 in 7.0 mi NE 3.5 mph - N/A   Overcast
10:15 PM 60.8 °F 60.8 °F 100% 30.35 in 7.0 mi Calm Calm - N/A   Overcast
10:35 PM 60.8 °F 60.8 °F 100% 30.36 in 7.0 mi Calm Calm - N/A   Scattered Clouds
10:55 PM 60.8 °F 60.8 °F 100% 30.36 in 7.0 mi Calm Calm - N/A   Mostly Cloudy
11:15 PM 60.8 °F 60.8 °F 100% 30.36 in 7.0 mi Calm Calm - N/A   Overcast
11:35 PM 60.8 °F 60.8 °F 100% 30.36 in 7.0 mi Calm Calm - N/A   Overcast
11:55 PM 60.8 °F 60.8 °F 100% 30.35 in 7.0 mi Calm Calm - N/A   Mostly Cloudy